Tracking 30743 objects as of 20-Jun-2025
HD Live streaming from Space Station
objects crossing your sky now

COSMOS 1275 DEB

Track COSMOS 1275 DEB now!
10-day predictions


NORAD ID: 14364
Int'l Code: 1981-053JA
Perigee: 805.3 km
Apogee: 843.2 km
Inclination: 82.8 °
Period: 101.2 minutes
Semi major axis: 7195 km
RCS: 0.0121 m2 (small)
Launch date: June 4, 1981
Source: Commonwealth of Independent States (former USSR) (CIS)
Launch site: PLESETSK MISSILE AND SPACE COMPLEX (PKMTR)

Note: This is SATELLITE DEBRIS
Your satellite tracking list
Your tracking list is empty




NASA's NSSDC Master Catalog

Two Line Element Set (TLE):
1 14364U 81053HX  25170.84774417  .00002491  00000-0  11076-2 0  9995
2 14364  82.7788 212.5705 0026298 233.9142 125.9605 14.22434876176040
Source of the keplerian elements: AFSPC